Regional Weather Roundup
Issued by NWS Memphis, TN

Home | Current Version | Previous Version | Text Only | Print | Product List | Glossary On
Versions: 1 2 3 4 5 6 7 8 9 10 11 12 13 14 15 16 17 18 19 20 21 22 23 24 25 26 27 28 29 30 31 32 33 34 35 36 37 38 39 40 41 42 43 44 45 46 47 48 49 50
000
ASUS44 KMEG 251710
RWRMEG
MEMPHIS CWA HOURLY WEATHER ROUNDUP
NATIONAL WEATHER SERVICE MEMPHIS TN
1200 PM CDT MON JUL 25 2016

...WEST TENNESSEE...

CITY           SKY/WX    TMP DP  RH WIND       PRES   REMARKS
MEMPHIS INTL   MOSUNNY   92  75  57 S7        30.01F HX 103
NWS MEMPHIS      N/A     91 N/A N/A MISG        N/A
JACKSON        MOSUNNY   92  76  59 SW10      30.03F HX 104
LEXINGTON      SUNNY     91  75  59 SW8       30.03F HX 102
DYERSBURG      MOSUNNY  N/A N/A N/A MISG        N/A
UNION CITY     MOSUNNY   90  79  70 SW6       30.01F HX 105
PARIS          MOSUNNY   90  77  66 SW9       30.04F HX 102


...EASTERN ARKANSAS...

CITY           SKY/WX    TMP DP  RH WIND       PRES   REMARKS
JONESBORO      SUNNY     88  76  67 SW9       30.00F HX  99
WEST MEMPHIS   MOSUNNY   89  77  67 S7        30.00F HX 101
BATESVILLE     MOSUNNY   88  73  62 W6        30.02F HX  96
NEWPORT        PTSUNNY   94  73  50 W9        30.02S HX 103
WALNUT RIDGE   MOSUNNY   88  75  66 SW7       30.00S HX  97
BLYTHEVILLE    MOSUNNY   90  79  70 S9        30.01F HX 106
NW BLYTHEVILLE PTSUNNY   91  79  66 SW9       30.01F HX 107
SEARCY         CLOUDY    87  75  67 CALM      30.03S HX  96
STUTTGART      SUNNY     90  73  58 SW6       30.02F HX  98
PINE BLUFF     MOSUNNY   88  72  58 CALM      30.01F HX  94
MONTICELLO     MOSUNNY   90  74  59 SE3       30.01F HX  99


...NORTH MISSISSIPPI...

CITY           SKY/WX    TMP DP  RH WIND       PRES   REMARKS
TUPELO         SUNNY     92  69  47 SE8       30.03S HX  97
OXFORD         MOSUNNY   90  72  55 S3        30.05F HX  96
BATESVILLE     MOSUNNY   90  73  56 S5        30.02F HX  98
OLIVE BRANCH   MOSUNNY  N/A N/A N/A VRB6      30.02F
TUNICA         MOSUNNY   90  77  66 S5        30.02F HX 102
CLARKSDALE     MOSUNNY   90  79  70 CALM      30.02F HX 105
CORINTH        MOSUNNY   91  72  52 SW7       30.03  HX  98
GREENWOOD      SUNNY     92  70  48 VRB3      30.01S HX  97
COLUMBUS       SUNNY     92  78  64 SE10      30.01F HX 106
GOLDEN TRIANGL MOSUNNY   91  70  49 SE12      30.02F HX  97


...SOUTHEAST MISSOURI...

CITY           SKY/WX    TMP DP  RH WIND       PRES   REMARKS
KENNETT        MOSUNNY   91  77  62 SW12      29.99F HX 105
WEST PLAINS    PTSUNNY   80  71  74 CALM      30.09F
POPLAR BLUFF   MOSUNNY   89  78  70 S8        30.00F HX 103
CAPE GIRARDEAU MOSUNNY   88  76  67 SW8       30.01F HX  99


...NORTHWEST ALABAMA...

CITY           SKY/WX    TMP DP  RH WIND       PRES   REMARKS
MUSCLE SHOALS  SUNNY     91  71  51 SW8       30.05F HX  97


...MIDDLE TENNESSEE...

CITY           SKY/WX    TMP DP  RH WIND       PRES   REMARKS
NASHVILLE      LGT RAIN  89  75  63 NW6       30.05S HX  99
CLARKSVILLE    PTSUNNY   90  75  61 SW9       30.04R HX 100
COLUMBIA       MOSUNNY   93  72  49 SW8       30.04F HX 100


...WESTERN KENTUCKY...

CITY           SKY/WX    TMP DP  RH WIND       PRES   REMARKS
PADUCAH        CLOUDY    90  76  63 SW8       30.01S HX 101
FORT CAMPBELL  MOSUNNY   91  77  63 SW12      30.03S HX 103


...CENTRAL ARKANSAS...

CITY           SKY/WX    TMP DP  RH WIND       PRES   REMARKS
LITTLE ROCK    MOSUNNY   92  72  51 VRB5      30.01S HX  99


SKY/WX REPORTED AS FAIR MEANS FEW OR NO CLOUDS BELOW
12 THOUSAND FEET.





USA.gov is the U.S. government's official web portal to all federal, state and local government web resources and services.